TimeEST,TemperatureF,Dew PointF,Humidity,Sea Level PressureIn,VisibilityMPH,Wind Direction,Wind SpeedMPH,Gust SpeedMPH,PrecipitationIn,Events,Conditions,WindDirDegrees,DateUTC
12:53 AM,37.0,30.9,79,30.53,5.0,Calm,Calm,-,N/A,,Haze,0,2012-11-18 05:53:00
1:53 AM,36.0,30.0,79,30.52,5.0,SE,3.5,-,N/A,,Haze,130,2012-11-18 06:53:00
2:53 AM,36.0,30.9,82,30.51,4.0,Calm,Calm,-,N/A,,Haze,0,2012-11-18 07:53:00
3:53 AM,33.1,30.9,92,30.51,3.0,Calm,Calm,-,N/A,,Clear,0,2012-11-18 08:53:00
4:07 AM,33.8,30.2,87,30.49,2.5,Calm,Calm,-,N/A,,Clear,0,2012-11-18 09:07:00
4:53 AM,30.9,28.9,92,30.51,2.0,Calm,Calm,-,N/A,,Clear,0,2012-11-18 09:53:00
5:16 AM,32.0,28.4,87,30.49,1.8,Calm,Calm,-,N/A,,Clear,0,2012-11-18 10:16:00
5:30 AM,30.2,28.4,93,30.49,2.0,Calm,Calm,-,N/A,,Clear,0,2012-11-18 10:30:00
5:40 AM,30.2,28.4,93,30.49,1.8,SE,3.5,-,N/A,,Clear,130,2012-11-18 10:40:00
5:48 AM,28.4,28.4,100,30.48,2.0,SE,3.5,-,N/A,,Clear,130,2012-11-18 10:48:00
5:53 AM,30.0,28.0,92,30.51,2.0,ESE,3.5,-,N/A,,Clear,120,2012-11-18 10:53:00
6:53 AM,33.1,30.9,92,30.52,3.0,Calm,Calm,-,N/A,,Clear,0,2012-11-18 11:53:00
7:02 AM,33.8,30.2,87,30.49,2.5,Calm,Calm,-,N/A,,Clear,0,2012-11-18 12:02:00
7:12 AM,33.8,32.0,93,30.49,3.0,Calm,Calm,-,N/A,,Clear,0,2012-11-18 12:12:00
7:30 AM,33.8,30.2,87,30.49,1.8,Calm,Calm,-,N/A,,Clear,0,2012-11-18 12:30:00
7:53 AM,32.0,30.0,92,30.52,1.2,Calm,Calm,-,N/A,,Clear,0,2012-11-18 12:53:00
8:53 AM,36.0,33.1,89,30.53,1.8,Calm,Calm,-,N/A,,Clear,0,2012-11-18 13:53:00
9:02 AM,37.4,33.8,87,30.50,2.0,North,-9999.0,-,N/A,,Clear,0,2012-11-18 14:02:00
9:21 AM,39.2,33.8,81,30.50,3.0,ESE,4.6,-,N/A,,Haze,120,2012-11-18 14:21:00
9:53 AM,42.1,35.1,76,30.52,4.0,SE,6.9,-,N/A,,Haze,130,2012-11-18 14:53:00
10:53 AM,48.0,34.0,58,30.51,6.0,South,5.8,-,N/A,,Haze,170,2012-11-18 15:53:00
11:53 AM,51.1,32.0,48,30.48,9.0,SSE,6.9,-,N/A,,Clear,150,2012-11-18 16:53:00
12:53 PM,55.0,30.9,40,30.45,10.0,SSE,5.8,-,N/A,,Clear,150,2012-11-18 17:53:00
1:53 PM,55.0,30.0,38,30.43,10.0,South,6.9,-,N/A,,Clear,180,2012-11-18 18:53:00
2:53 PM,55.0,30.0,38,30.42,10.0,Variable,5.8,-,N/A,,Clear,0,2012-11-18 19:53:00
3:53 PM,55.9,30.9,39,30.42,10.0,Variable,3.5,-,N/A,,Clear,0,2012-11-18 20:53:00
4:53 PM,53.1,28.9,40,30.42,10.0,Calm,Calm,-,N/A,,Clear,0,2012-11-18 21:53:00
5:53 PM,46.9,30.0,52,30.43,10.0,Calm,Calm,-,N/A,,Clear,0,2012-11-18 22:53:00
6:53 PM,42.1,28.9,60,30.43,10.0,Calm,Calm,-,N/A,,Clear,0,2012-11-18 23:53:00
7:53 PM,44.1,28.9,55,30.43,10.0,SE,4.6,-,N/A,,Clear,130,2012-11-19 00:53:00
8:53 PM,43.0,30.9,62,30.43,10.0,Calm,Calm,-,N/A,,Clear,0,2012-11-19 01:53:00
9:53 PM,42.1,32.0,67,30.43,10.0,ESE,3.5,-,N/A,,Clear,120,2012-11-19 02:53:00
10:53 PM,39.0,32.0,76,30.41,9.0,SE,6.9,-,N/A,,Clear,140,2012-11-19 03:53:00
11:53 PM,39.9,32.0,73,30.41,8.0,Calm,Calm,-,N/A,,Clear,0,2012-11-19 04:53:00